Fort Morgan, CO

3:38 AM MST on February 26, 2017 (GMT -0700)
Fort Morgan

Weather History for KFMM - January, 2014

Change the Weather History Date:

Monday, January 20, 2014

  Actual Average (KAKO) Record (KAKO)
Temperature  
Mean Temperature 35 °F -  
Max Temperature 47 °F 38 °F 68 °F (1950)
Min Temperature 23 °F 16 °F -12 °F (1984)
Degree Days  
Heating Degree Days 30    
Moisture  
Dew Point 15 °F    
Average Humidity 45    
Maximum Humidity 72    
Minimum Humidity 28    
Precipitation  
Precipitation 0.00 in - - ()
Sea Level Pressure  
Sea Level Pressure 30.24 in    
Wind  
Wind Speed 12 mph (NNW)    
Max Wind Speed 26 mph    
Max Gust Speed 34 mph    
Visibility 10 miles    
Events      
Averages and records for this station are not official NWS values.
T = Trace of Precipitation, MM = Missing Value Source: NWS Daily Summary

Daily Weather History Graph

Daily Weather History Graph

Search for Another Location

Airport or City:

Trip Planner

Search our weather history database for the weather conditions in past years. The results will help you decide how hot, cold, wet, or windy it might be!

Date:

Astronomy

Jan. 20, 2014 Rise Set
Actual Time 7:13 AM MST 4:59 PM MST
Civil Twilight 6:43 AM MST 5:28 PM MST
Nautical Twilight 6:10 AM MST 6:02 PM MST
Astronomical Twilight 5:38 AM MST 6:34 PM MST
Moon 9:37 PM MST (1/20) 9:13 AM MST (1/20)
Length of Visible Light 10h 44m
Length of Day
9h 45m
Waning Gibbous, 82% of the Moon is Illuminated
Jan 20
Waning Gibbous
Jan 23
Last Quarter
Jan 30
New
Feb 6
First Quarter
Feb 14
Full

Hourly Weather History & Observations

Time (MST) Temp. Windchill Dew Point Humidity Pressure Visibility Wind Dir Wind Speed Gust Speed Precip Events Conditions
12:15 AM 32.9 °F 29.8 °F 18.0 °F 54% 29.98 in 10.0 mi NW 3.5 mph - N/A   Clear
12:35 AM 34.2 °F - 14.9 °F 45% 29.98 in 10.0 mi Calm Calm - N/A   Clear
12:55 AM 32.2 °F 28.9 °F 13.3 °F 46% 29.99 in 10.0 mi South 3.5 mph - N/A   Clear
1:15 AM 29.7 °F 26.1 °F 16.0 °F 57% 29.99 in 10.0 mi SSW 3.5 mph - N/A   Clear
1:35 AM 30.6 °F 25.8 °F 16.3 °F 56% 29.99 in 10.0 mi NNE 4.6 mph - N/A   Clear
1:55 AM 33.8 °F - 13.1 °F 43% 30.01 in 10.0 mi Calm Calm - N/A   Clear
2:15 AM 29.8 °F 24.9 °F 14.0 °F 52% 30.02 in 10.0 mi North 4.6 mph - N/A   Clear
2:35 AM 32.2 °F 23.2 °F 13.1 °F 45% 30.02 in 10.0 mi North 11.5 mph - N/A   Clear
2:55 AM 35.1 °F 25.2 °F 11.3 °F 37% 30.03 in 10.0 mi NNW 16.1 mph - N/A   Clear
3:15 AM 36.0 °F 26.3 °F 10.8 °F 35% 30.03 in 10.0 mi NNW 16.1 mph - N/A   Clear
3:35 AM 35.4 °F 25.6 °F 10.4 °F 36% 30.04 in 10.0 mi NNW 16.1 mph - N/A   Clear
3:55 AM 33.4 °F 22.7 °F 11.3 °F 40% 30.05 in 10.0 mi North 17.3 mph - N/A   Clear
4:15 AM 34.2 °F 24.4 °F 11.1 °F 39% 30.06 in 10.0 mi NNW 15.0 mph - N/A   Clear
4:35 AM 33.6 °F 24.1 °F 11.1 °F 39% 30.08 in 10.0 mi North 13.8 mph - N/A   Clear
4:55 AM 35.4 °F 26.0 °F 10.4 °F 36% 30.10 in 10.0 mi North 15.0 mph - N/A   Clear
5:15 AM 37.6 °F 27.7 °F 11.3 °F 34% 30.11 in 10.0 mi North 18.4 mph - N/A   Clear
5:35 AM 36.9 °F 26.5 °F 12.6 °F 37% 30.12 in 10.0 mi North 19.6 mph 25.3 mph N/A   Clear
5:55 AM 36.9 °F 26.2 °F 14.0 °F 39% 30.14 in 10.0 mi North 20.7 mph 26.5 mph N/A   Clear
6:15 AM 36.7 °F 25.4 °F 14.9 °F 41% 30.15 in 10.0 mi North 23.0 mph 29.9 mph N/A   Clear
6:35 AM 36.7 °F 26.0 °F 15.6 °F 42% 30.17 in 10.0 mi North 20.7 mph 29.9 mph N/A   Clear
6:55 AM 35.4 °F 24.3 °F 16.0 °F 45% 30.18 in 10.0 mi North 20.7 mph 27.6 mph N/A   Clear
7:15 AM 34.7 °F 23.7 °F 16.3 °F 47% 30.19 in 10.0 mi North 19.6 mph 27.6 mph N/A   Clear
7:35 AM 33.8 °F 22.8 °F 16.9 °F 50% 30.21 in 10.0 mi North 18.4 mph - N/A   Scattered Clouds
7:55 AM 35.2 °F 23.2 °F 17.6 °F 49% 30.22 in 10.0 mi North 24.2 mph 28.8 mph N/A   Scattered Clouds
8:15 AM 36.5 °F 25.4 °F 18.5 °F 48% 30.22 in 10.0 mi North 21.9 mph 33.4 mph N/A   Clear
8:35 AM 36.1 °F 23.9 °F 18.5 °F 49% 30.24 in 10.0 mi North 26.5 mph 32.2 mph N/A   Clear
8:55 AM 34.7 °F 22.5 °F 19.4 °F 54% 30.25 in 10.0 mi North 24.2 mph 31.1 mph N/A   Clear
9:15 AM 36.5 °F 25.2 °F 20.7 °F 53% 30.26 in 10.0 mi North 23.0 mph 32.2 mph N/A   Scattered Clouds
9:35 AM 36.5 °F 25.4 °F 20.1 °F 52% 30.26 in 10.0 mi North 21.9 mph 29.9 mph N/A   Clear
9:55 AM 36.7 °F 25.7 °F 18.5 °F 48% 30.27 in 10.0 mi North 21.9 mph 26.5 mph N/A   Clear
10:15 AM 40.3 °F 29.9 °F 16.3 °F 38% 30.28 in 10.0 mi North 24.2 mph 29.9 mph N/A   Clear
10:35 AM 43.0 °F 33.1 °F 14.0 °F 31% 30.29 in 10.0 mi North 26.5 mph 34.5 mph N/A   Clear
10:55 AM 43.7 °F 34.5 °F 13.1 °F 29% 30.30 in 10.0 mi North 24.2 mph 34.5 mph N/A   Clear
11:15 AM 44.6 °F 35.9 °F 13.3 °F 28% 30.30 in 10.0 mi North 23.0 mph 29.9 mph N/A   Clear
11:35 AM 45.9 °F 37.8 °F 14.4 °F 28% 30.29 in 10.0 mi North 21.9 mph 26.5 mph N/A   Clear
11:55 AM 45.9 °F 37.6 °F 14.9 °F 29% 30.28 in 10.0 mi NNW 23.0 mph 31.1 mph N/A   Clear
12:15 PM 46.4 °F 38.5 °F 14.4 °F 28% 30.28 in 10.0 mi NNW 21.9 mph 27.6 mph N/A   Clear
12:35 PM 47.1 °F - 15.3 °F 28% 30.28 in 10.0 mi NNW 17.3 mph 23.0 mph N/A   Clear
12:55 PM 47.3 °F - 15.8 °F 28% 30.28 in 10.0 mi North 12.7 mph 25.3 mph N/A   Clear
1:15 PM 47.1 °F - 16.3 °F 29% 30.27 in 10.0 mi NNW 17.3 mph 24.2 mph N/A   Clear
1:35 PM 47.7 °F - 16.9 °F 29% 30.28 in 10.0 mi NNW 19.6 mph 27.6 mph N/A   Clear
1:55 PM 47.5 °F - 16.3 °F 29% 30.28 in 10.0 mi North 23.0 mph 27.6 mph N/A   Clear
2:15 PM 47.3 °F - 16.5 °F 29% 30.28 in 10.0 mi North 23.0 mph 28.8 mph N/A   Clear
2:35 PM 46.9 °F - 16.3 °F 29% 30.28 in 10.0 mi North 20.7 mph 25.3 mph N/A   Clear
2:55 PM 46.8 °F - 16.5 °F 30% 30.29 in 10.0 mi North 21.9 mph 27.6 mph N/A   Clear
3:15 PM 46.9 °F - 16.3 °F 29% 30.29 in 10.0 mi NNW 21.9 mph 28.8 mph N/A   Clear
3:35 PM 46.2 °F 39.3 °F 16.2 °F 30% 30.30 in 10.0 mi North 17.3 mph 27.6 mph N/A   Clear
3:55 PM 44.8 °F 37.4 °F 16.9 °F 33% 30.30 in 10.0 mi North 17.3 mph 23.0 mph N/A   Clear
4:15 PM 43.2 °F 35.3 °F 16.7 °F 35% 30.32 in 10.0 mi North 17.3 mph - N/A   Clear
4:35 PM 41.4 °F 33.6 °F 16.7 °F 37% 30.32 in 10.0 mi North 15.0 mph 20.7 mph N/A   Clear
4:55 PM 37.8 °F 30.7 °F 16.7 °F 42% 30.32 in 10.0 mi North 10.4 mph 16.1 mph N/A   Clear
5:15 PM 35.2 °F 27.1 °F 16.7 °F 47% 30.33 in 10.0 mi North 11.5 mph - N/A   Clear
5:35 PM 32.4 °F 24.0 °F 16.7 °F 53% 30.33 in 10.0 mi North 10.4 mph - N/A   Clear
5:55 PM 30.0 °F 20.5 °F 16.3 °F 57% 30.32 in 10.0 mi NNE 11.5 mph - N/A   Clear
6:15 PM 29.5 °F 21.1 °F 15.8 °F 57% 30.33 in 10.0 mi North 9.2 mph - N/A   Clear
6:35 PM 31.8 °F 23.9 °F 15.6 °F 51% 30.33 in 10.0 mi North 9.2 mph - N/A   Clear
6:55 PM 27.9 °F - 14.7 °F 58% 30.33 in 10.0 mi Calm Calm - N/A   Clear
7:15 PM 29.3 °F 23.2 °F 14.9 °F 55% 30.34 in 10.0 mi SSE 5.8 mph - N/A   Clear
7:35 PM 30.2 °F 25.4 °F 15.8 °F 55% 30.36 in 10.0 mi WNW 4.6 mph - N/A   Clear
7:55 PM 31.8 °F 27.3 °F 15.8 °F 52% 30.37 in 10.0 mi West 4.6 mph - N/A   Clear
8:15 PM 29.8 °F 21.5 °F 16.5 °F 58% 30.37 in 10.0 mi North 9.2 mph - N/A   Clear
8:35 PM 30.6 °F 25.8 °F 16.0 °F 55% 30.37 in 10.0 mi NW 4.6 mph - N/A   Clear
8:55 PM 27.3 °F 22.0 °F 15.3 °F 61% 30.38 in 10.0 mi WNW 4.6 mph - N/A   Clear
9:15 PM 25.2 °F 19.5 °F 13.8 °F 62% 30.37 in 10.0 mi WNW 4.6 mph - N/A   Clear
9:35 PM 24.6 °F 18.8 °F 15.1 °F 67% 30.38 in 10.0 mi West 4.6 mph - N/A   Clear
9:55 PM 26.4 °F 22.4 °F 16.2 °F 65% 30.37 in 10.0 mi West 3.5 mph - N/A   Clear
10:15 PM 26.4 °F - 16.3 °F 66% 30.37 in 10.0 mi Calm Calm - N/A   Clear
10:35 PM 26.8 °F 22.8 °F 16.0 °F 64% 30.37 in 10.0 mi SW 3.5 mph - N/A   Clear
10:55 PM 26.4 °F 22.4 °F 16.2 °F 65% 30.37 in 10.0 mi WSW 3.5 mph - N/A   Clear
11:15 PM 23.4 °F 16.2 °F 14.9 °F 70% 30.37 in 10.0 mi West 5.8 mph - N/A   Clear
11:35 PM 24.3 °F 19.9 °F 16.3 °F 72% 30.35 in 10.0 mi West 3.5 mph - N/A   Clear
11:55 PM 24.1 °F 19.7 °F 16.2 °F 72% 30.35 in 10.0 mi WSW 3.5 mph - N/A   Clear